Location: Oteiza
(42.6189°N, 1.9527°W)
Time: 15:05:35
(UTC+02:00)

ISS - Visible Passes

Search period start: 22 September 2018 00:00
Search period end: 02 October 2018 00:00
Orbit: 403 x 408 km, 51.6° (Epoch: 22 September)

Date Brightness Start Highest point End Pass type
(mag) Time Alt. Az. Time Alt. Az. Time Alt. Az.
22 Sep -3.2 21:58:55 10° WSW 22:01:33 54° WSW 22:01:33 54° WSW visible
23 Sep -3.7 21:07:06 10° SW 21:10:20 56° SE 21:12:17 21° ENE visible
23 Sep -0.7 22:44:08 10° W 22:45:00 15° WNW 22:45:00 15° WNW visible
24 Sep -2.6 21:51:50 10° W 21:54:58 39° NNW 21:55:31 35° N visible
25 Sep -3.4 20:59:41 10° WSW 21:02:58 63° NNW 21:05:53 13° NE visible
25 Sep -0.8 22:37:26 10° WNW 22:38:34 16° NW 22:38:34 16° NW visible
26 Sep -1.9 21:45:01 10° WNW 21:47:48 24° NNW 21:48:48 21° NNE visible
27 Sep -2.3 20:52:39 10° W 20:55:41 33° NNW 20:58:44 10° NE visible
27 Sep -0.7 22:30:38 10° NW 22:31:38 14° NNW 22:31:38 14° NNW visible
28 Sep -1.6 21:38:15 10° WNW 21:40:41 19° N 21:41:42 16° NNE visible
29 Sep -1.7 20:45:48 10° WNW 20:48:28 22° NNW 20:51:09 10° NE visible
29 Sep -0.8 22:23:32 10° NW 22:24:23 14° NNW 22:24:23 14° NNW visible
30 Sep -1.5 21:31:19 10° NW 21:33:34 17° N 21:34:21 16° NNE visible
01 Oct -1.5 20:38:57 10° NW 20:41:18 18° N 20:43:39 10° NE visible
01 Oct -0.9 22:16:05 10° NW 22:16:58 15° NNW 22:16:58 15° NNW visible
